Hourly Data Report for February 21, 2019

TORONTO INTL A
ONTARIO
Current Station Operator: NAVCAN

43°40'36.000" N
79°37'50.000" W
173.40 m
6158731
71624
YYZ

Download Data

Hourly Data (February 2019)
Hourly Data Report for February 21, 2019
TIME
LST
Temp Definition
°C
Dew Point Definition
°C
Rel Hum Definition
%
Precip. Amount Definition
mm

Wind Dir Definition
10's deg

Wind Spd Definition
km/h
Visibility Definition
km
Stn Press Definition
kPa
Hmdx Definition


Wind Chill Definition


Weather Definition


00:00 -0.2 -1.6 91   14 9 4.8 98.60   -3 Freezing Drizzle, Snow, Fog
01:00 0.1 -1.1 92   19 11 4.0 98.61     Snow, Fog
02:00 0.3 -0.8 92   20 13 4.0 98.65     Fog
03:00 1.4 0.3 93   24 17 16.1 98.73     Drizzle
04:00 2.2 0.8 91   25 25 24.1 98.78     Mostly Cloudy
05:00 2.1 0.3 88   25 23 24.1 98.88     LegendNANA
06:00 2.2 -0.3 83   26 25 24.1 98.99     LegendNANA
07:00 2.2 -0.9 80   26 34 24.1 99.05     Mostly Cloudy
08:00 2.3 -2.1 73   25 22 24.1 99.16     LegendNANA
09:00 2.2 -2.7 70   26 19 24.1 99.26     LegendNANA
10:00 2.4 -3.0 68   26 28 24.1 99.30     Cloudy
11:00 2.3 -3.5 66   27 28 24.1 99.40     LegendNANA
12:00 1.9 -4.2 64   27 28 24.1 99.44     LegendNANA
13:00 2.5 -3.7 63   26 36 24.1 99.47     Mostly Cloudy
14:00 2.9 -4.2 60   26 40 24.1 99.48     LegendNANA
15:00 2.6 -4.5 59   27 39 24.1 99.57     LegendNANA
16:00 2.1 -4.9 60   28 33 24.1 99.63     Mostly Cloudy
17:00 1.6 -5.3 60   29 32 24.1 99.75     LegendNANA
18:00 0.7 -6.5 59   27 37 24.1 99.88     LegendNANA
19:00 0.2 -6.6 60   28 28 24.1 100.00     Mainly Clear
20:00 -0.7 -7.2 62   27 20 24.1 100.05   -6 LegendNANA
21:00 -1.2 -7.2 64   28 17 24.1 100.09   -6 LegendNANA
22:00 -1.7 -7.3 66   28 17 24.1 100.15   -7 Mostly Cloudy
23:00 -2.2 -7.5 67   27 14 24.1 100.25   -7 LegendNANA

Notes on Data Quality.

Legend

  • E = Estimated
  • M = Missing
  • NA = Not Available*
  • [empty] = Indicates an unobserved value
Date modified: